Regional Weather Roundup
Issued by NWS

Home | Current Version | Previous Version | Text Only | Print | Product List | Glossary Off
Versions: 1 2 3 4 5 6 7 8 9 10 11 12 13 14 15 16 17 18 19 20 21 22 23 24 25 26 27 28 29 30 31 32 33 34 35 36 37 38 39 40 41 42 43 44 45 46 47 48 49 50

000
ASUS45 KPSR 231400
RWRAZ

PRELIMINARY ARIZONA REGIONAL HOURLY WEATHER ROUNDUP
NATIONAL WEATHER SERVICE PHOENIX AZ
700 AM MST WED JUL 23 2014

NOTE: FAIR INDICATES FEW OR NO CLOUDS BELOW 12,000 FEET WITH NO
SIGNIFICANT WEATHER AND/OR OBSTRUCTIONS TO VISIBILITY.

AZZ001>003-036-231500-
NORTHWEST ARIZONA

CITY           SKY/WX    TMP DP  RH WIND       PRES   REMARKS
KINGMAN        SUNNY     78  37  22 CALM      30.11R
$$

AZZ004>008-015-016-018-231500-
NORTH CENTRAL ARIZONA

CITY           SKY/WX    TMP DP  RH WIND       PRES   REMARKS
GRAND CANYON   PTSUNNY   67  43  41 NE3       30.39R
WILLIAMS       MOSUNNY   64  41  42 S7        30.46R
PRESCOTT       MOSUNNY   75  40  28 CALM      30.26R
FLAGSTAFF      SUNNY     56  43  61 CALM      30.43R
PAYSON         SUNNY     77  52  41 CALM      30.31R
PAGE           MOSUNNY   85  43  22 S5        30.19R
$$

AZZ009>014-017-231500-
NORTHEAST ARIZONA

CITY           SKY/WX    TMP DP  RH WIND       PRES   REMARKS
WINSLOW        NOT AVBL
SAINT JOHNS    SUNNY     71  52  50 SE5       30.35R
WINDOW ROCK    MOSUNNY   66  47  50 CALM      30.46R
$$

AZZ023-231500-
GREATER PHOENIX AREA

CITY           SKY/WX    TMP DP  RH WIND       PRES   REMARKS
PHOENIX        CLOUDY    97  57  26 E14       29.90R
BUCKEYE          N/A     90  45  20 N5        29.90R
GLENDALE       PTSUNNY   97  55  24 N7        29.91R
DEER VALLEY    PTSUNNY   96  53  23 E3        29.93R
SCOTTSDALE     PTSUNNY   96  57  27 E6        29.95R
MESA-FALCON    PTSUNNY   95  57  28 E8        29.94R
MESA-GATEWAY   PTSUNNY   93  57  29 SE10      29.96R
CHANDLER       PTSUNNY   93  61  33 E16       29.92R
$$

AZZ027-028-231500-
SOUTHWEST MARICOPA COUNTY AND PINAL COUNTY

CITY           SKY/WX    TMP DP  RH WIND       PRES   REMARKS
CASA GRANDE    MOSUNNY   91  57  31 E10       29.95R
GILA BEND      PTSUNNY   93  41  16 S5        29.89
$$

AZZ503-504-507>509-231500-
SOUTHEAST ARIZONA

CITY           SKY/WX    TMP DP  RH WIND       PRES   REMARKS
TUCSON         PTSUNNY   88  58  36 SE14      30.08R
NOGALES        MOSUNNY   76  58  53 NE7       30.16R
SAFFORD        SUNNY     81  59  47 SE14      30.15R
$$

AZZ020-021-025-026-031-231500-
SOUTHWEST ARIZONA

CITY           SKY/WX    TMP DP  RH WIND       PRES   REMARKS
YUMA           NOT AVBL
$$

CAZ031-033-041-043-047-048-061-231500-
SOUTHERN CALIFORNIA

CITY           SKY/WX    TMP DP  RH WIND       PRES   REMARKS
DOWNTOWN L.A.  SUNNY     68  61  78 CALM      30.00R
L.A. AIRPORT   MOSUNNY   67  61  81 E3        30.01R
SAN DIEGO      MOSUNNY   68  62  81 N3        30.02R
BURBANK        SUNNY     69  56  62 CALM      30.01R
ONTARIO        SUNNY     70  54  56 CALM      30.02R
RIVERSIDE      SUNNY     66  50  56 CALM      30.02R
PALM SPRINGS   SUNNY     82  54  37 VRB3      29.89R
EL CENTRO NAS  MOSUNNY   83  42  23 W3        29.84R
IMPERIAL       SUNNY     83  48  29 NW3       29.83R
BLYTHE         SUNNY     89  37  16 N6        29.86R
$$

NVZ020-UTZ003-231500-
SOUTHERN NEVADA-UTAH

CITY           SKY/WX    TMP DP  RH WIND       PRES   REMARKS
LAS VEGAS      NOT AVBL
SALT LAKE CITY MOSUNNY   79  38  22 SE12      30.12R
$$

NMZ009-TXZ055-231500-
NEW MEXICO-WEST TEXAS

CITY           SKY/WX    TMP DP  RH WIND       PRES   REMARKS
ALBUQUERQUE    MOSUNNY   73  55  53 NW6       30.37R
EL PASO        MOSUNNY   76  64  66 CALM      30.23R
$$


........................KEY........................
SKY/WX - SKY CONDITION/WEATHER
TMP    - TEMPERATURE IN FAHRENHEIT
DP     - DEW POINT IN FAHRENHEIT
RH     - RELATIVE HUMIDITY IN PERCENT
WIND   - DIRECTION AND SPEED IN MILES PER HOUR (MPH)
VRB    - VARIABLE WIND DIRECTION
PRES   - MEAN SEA LEVEL PRESSURE IN INCHES OF MERCURY
         F - FALLING PRESSURE   R - RISING PRESSURE
         S - STEADY PRESSURE
VSB    - VISIBILITY IN MILES
HX     - HEAT INDEX IN FAHRENHEIT
WCI    - WIND CHILL INDEX IN FAHRENHEIT
TC     - TEMPERATURE IN CELSIUS WHICH IS ALSO KNOWN AS
         TEMPERATURE IN CENTIGRADE
AFB    - AIR FORCE BASE
         LUKE AFB IS LUKE AIR FORCE BASE
         DAVIS-MONTHAN IS DAVIS-MONTHAN AIR FORCE BASE
NAS    - NAVAL AIR STATION
         EL CENTRO NAS IS EL CENTRO NAVAL AIR STATION
N/A    - NOT AVAILABLE



USA.gov is the U.S. government's official web portal to all federal, state and local government web resources and services.